| time (UTC) | temp C | wind direction | speed KPH | gust KPH | rain 1hr cm | rain 24hr cm | rain mn cm | humidity % | barometer mb |
| 20260508024551 | 18 | 258 | 3.2 | 14.5 | 0.00 | 0.00 | 0.00 | 46 | 1009.8 |
| 20260508023044 | 17 | 162 | 16.1 | 30.6 | 0.00 | 0.00 | 0.00 | 47 | 1009.4 |
| 20260508021540 | 18 | 240 | 4.8 | 16.1 | 0.00 | 0.00 | 0.00 | 45 | 1008.8 |
| 20260508020047 | 18 | 207 | 4.8 | 16.1 | 0.00 | 0.00 | 0.00 | 44 | 1008.5 |
| 20260508014541 | 18 | 254 | 8.0 | 17.7 | 0.00 | 0.00 | 0.00 | 43 | 1008.3 |
| 20260508013039 | 19 | 223 | 4.8 | 12.9 | 0.00 | 0.00 | 0.00 | 40 | 1008.2 |
| 20260508011551 | 20 | 196 | 6.4 | 16.1 | 0.00 | 0.00 | 0.00 | 37 | 1008.0 |
| 20260508010042 | 21 | 229 | 6.4 | 17.7 | 0.00 | 0.00 | 0.00 | 36 | 1007.9 |
| 20260508004544 | 22 | 223 | 6.4 | 16.1 | 0.00 | 0.00 | 0.00 | 34 | 1007.9 |
| 20260508003041 | 22 | 139 | 8.0 | 20.9 | 0.00 | 0.00 | 0.00 | 33 | 1007.8 |
| 20260508001542 | 22 | 247 | 9.7 | 27.4 | 0.00 | 0.00 | 0.00 | 33 | 1007.8 |
| 20260508000041 | 22 | 224 | 9.7 | 24.1 | 0.00 | 0.00 | 0.00 | 32 | 1007.9 |
| 20260507234544 | 22 | 222 | 11.3 | 25.7 | 0.00 | 0.00 | 0.00 | 32 | 1008.0 |
| 20260507233056 | 22 | 205 | 14.5 | 27.4 | 0.00 | 0.00 | 0.00 | 32 | 1008.1 |
| 20260507231540 | 22 | 230 | 16.1 | 30.6 | 0.00 | 0.00 | 0.00 | 32 | 1008.2 |
| 20260507230040 | 22 | 254 | 12.9 | 27.4 | 0.00 | 0.00 | 0.00 | 31 | 1008.4 |
| 20260507224554 | 22 | 211 | 14.5 | 29.0 | 0.00 | 0.00 | 0.00 | 32 | 1008.6 |
| 20260507223045 | 22 | 243 | 12.9 | 29.0 | 0.00 | 0.00 | 0.00 | 32 | 1008.6 |
| 20260507221544 | 22 | 207 | 16.1 | 27.4 | 0.00 | 0.00 | 0.00 | 32 | 1008.7 |
| 20260507220042 | 22 | 217 | 12.9 | 25.7 | 0.00 | 0.00 | 0.00 | 31 | 1009.0 |
| 20260507214541 | 22 | 250 | 9.7 | 25.7 | 0.00 | 0.00 | 0.00 | 33 | 1009.0 |
| 20260507213041 | 22 | 165 | 12.9 | 33.8 | 0.00 | 0.00 | 0.00 | 32 | 1009.2 |
| 20260507211542 | 22 | 252 | 16.1 | 27.4 | 0.00 | 0.00 | 0.00 | 31 | 1009.5 |
| 20260507210050 | 22 | 199 | 12.9 | 35.4 | 0.00 | 0.00 | 0.00 | 31 | 1009.6 |
| 20260507204545 | 22 | 249 | 12.9 | 32.2 | 0.00 | 0.00 | 0.00 | 32 | 1009.8 |
| 20260507203045 | 22 | 302 | 16.1 | 32.2 | 0.00 | 0.00 | 0.00 | 33 | 1010.1 |
| 20260507201540 | 21 | 298 | 12.9 | 32.2 | 0.00 | 0.00 | 0.00 | 35 | 1010.3 |
| 20260507200038 | 21 | 213 | 14.5 | 37.0 | 0.00 | 0.00 | 0.00 | 34 | 1010.4 |
| 20260507194614 | 21 | 225 | 17.7 | 32.2 | 0.00 | 0.00 | 0.00 | 34 | 1010.6 |
| 20260507193045 | 21 | 229 | 16.1 | 27.4 | 0.00 | 0.00 | 0.00 | 34 | 1010.9 |
| 20260507191543 | 20 | 238 | 14.5 | 37.0 | 0.00 | 0.00 | 0.00 | 34 | 1011.0 |
| 20260507190050 | 20 | 163 | 16.1 | 29.0 | 0.00 | 0.00 | 0.00 | 37 | 1011.1 |
| 20260507184540 | 20 | 209 | 14.5 | 30.6 | 0.00 | 0.00 | 0.00 | 39 | 1011.4 |
| 20260507183044 | 20 | 221 | 17.7 | 29.0 | 0.00 | 0.00 | 0.00 | 37 | 1011.6 |
| 20260507181553 | 19 | 196 | 14.5 | 27.4 | 0.00 | 0.00 | 0.00 | 41 | 1012.0 |
| 20260507180043 | 18 | 220 | 14.5 | 33.8 | 0.00 | 0.00 | 0.00 | 41 | 1012.3 |
| 20260507174552 | 18 | 207 | 11.3 | 33.8 | 0.00 | 0.00 | 0.00 | 43 | 1012.7 |
| 20260507173103 | 18 | 194 | 19.3 | 33.8 | 0.00 | 0.00 | 0.00 | 43 | 1012.9 |
| 20260507171546 | 17 | 221 | 17.7 | 33.8 | 0.00 | 0.00 | 0.00 | 45 | 1013.0 |
| 20260507170108 | 17 | 246 | 14.5 | 33.8 | 0.00 | 0.00 | 0.00 | 45 | 1013.1 |
| 20260507164549 | 17 | 223 | 14.5 | 32.2 | 0.00 | 0.00 | 0.00 | 48 | 1013.2 |
| 20260507163041 | 17 | 290 | 17.7 | 33.8 | 0.00 | 0.00 | 0.00 | 48 | 1013.6 |
| 20260507161556 | 17 | 236 | 12.9 | 32.2 | 0.00 | 0.00 | 0.00 | 49 | 1013.8 |
| 20260507160042 | 16 | 228 | 17.7 | 33.8 | 0.00 | 0.00 | 0.00 | 47 | 1013.8 |
| 20260507154543 | 16 | 258 | 11.3 | 29.0 | 0.00 | 0.00 | 0.00 | 50 | 1013.9 |
| 20260507153041 | 16 | 238 | 6.4 | 20.9 | 0.00 | 0.00 | 0.00 | 53 | 1014.0 |
| 20260507151546 | 16 | 226 | 6.4 | 22.5 | 0.00 | 0.00 | 0.00 | 54 | 1014.3 |
| 20260507150042 | 15 | 284 | 8.0 | 30.6 | 0.00 | 0.00 | 0.00 | 54 | 1014.4 |
| 20260507144546 | 15 | 281 | 9.7 | 25.7 | 0.00 | 0.00 | 0.00 | 57 | 1014.5 |
| 20260507143044 | 14 | 275 | 4.8 | 30.6 | 0.00 | 0.00 | 0.00 | 59 | 1014.5 |
| 20260507141545 | 14 | 258 | 9.7 | 27.4 | 0.00 | 0.00 | 0.00 | 57 | 1014.5 |
| 20260507140044 | 13 | 284 | 4.8 | 16.1 | 0.00 | 0.00 | 0.00 | 63 | 1014.7 |
| 20260507134546 | 12 | 241 | 4.8 | 17.7 | 0.00 | 0.00 | 0.00 | 66 | 1014.7 |
| 20260507133042 | 11 | 257 | 8.0 | 20.9 | 0.00 | 0.00 | 0.00 | 68 | 1014.5 |
| 20260507131541 | 10 | 165 | 8.0 | 20.9 | 0.00 | 0.00 | 0.00 | 71 | 1014.6 |
| 20260507130039 | 10 | 207 | 8.0 | 14.5 | 0.00 | 0.00 | 0.00 | 73 | 1014.7 |
| 20260507124541 | 9 | 232 | 6.4 | 17.7 | 0.00 | 0.00 | 0.00 | 75 | 1014.7 |
| 20260507123045 | 8 | 211 | 6.4 | 16.1 | 0.00 | 0.00 | 0.00 | 76 | 1015.0 |
| 20260507121546 | 8 | 239 | 4.8 | 17.7 | 0.00 | 0.00 | 0.00 | 77 | 1015.0 |
| 20260507120053 | 7 | 217 | 4.8 | 16.1 | 0.00 | 0.00 | 0.00 | 78 | 1014.9 |
| 20260507114544 | 7 | 238 | 6.4 | 14.5 | 0.00 | 0.00 | 0.00 | 80 | 1014.8 |
| 20260507113049 | 6 | 215 | 3.2 | 14.5 | 0.00 | 0.00 | 0.00 | 82 | 1014.8 |
| 20260507111542 | 6 | 191 | 3.2 | 9.7 | 0.00 | 0.00 | 0.00 | 82 | 1014.8 |
| 20260507110046 | 6 | 219 | 1.6 | 6.4 | 0.00 | 0.00 | 0.00 | 82 | 1014.8 |
| 20260507104542 | 6 | 227 | 1.6 | 11.3 | 0.00 | 0.00 | 0.00 | 81 | 1014.8 |
| 20260507103044 | 6 | 250 | 1.6 | 9.7 | 0.00 | 0.00 | 0.00 | 80 | 1014.9 |
| 20260507101544 | 6 | 250 | 1.6 | 4.8 | 0.00 | 0.00 | 0.00 | 79 | 1015.0 |
| 20260507100043 | 6 | 239 | 3.2 | 4.8 | 0.00 | 0.00 | 0.00 | 76 | 1015.1 |
| 20260507094544 | 7 | 215 | 3.2 | 9.7 | 0.00 | 0.00 | 0.00 | 75 | 1015.2 |
| 20260507093044 | 7 | 215 | 4.8 | 6.4 | 0.00 | 0.00 | 0.00 | 74 | 1015.4 |
| 20260507091546 | 7 | 240 | 1.6 | 6.4 | 0.00 | 0.00 | 0.00 | 74 | 1015.3 |
| 20260507090046 | 7 | 225 | 1.6 | 4.8 | 0.00 | 0.00 | 0.00 | 74 | 1015.5 |
| 20260507084543 | 7 | 221 | 1.6 | 6.4 | 0.00 | 0.00 | 0.00 | 73 | 1015.5 |
| 20260507083043 | 6 | 225 | 0.0 | 4.8 | 0.00 | 0.00 | 0.00 | 74 | 1015.6 |
| 20260507081544 | 6 | 0 | 0.0 | 1.6 | 0.00 | 0.00 | 0.00 | 74 | 1015.8 |
| 20260507080047 | 6 | 0 | 0.0 | 3.2 | 0.00 | 0.00 | 0.00 | 74 | 1015.7 |
| 20260507074548 | 6 | 0 | 0.0 | 3.2 | 0.00 | 0.00 | 0.00 | 74 | 1015.8 |
| 20260507073059 | 6 | 0 | 0.0 | 1.6 | 0.00 | 0.00 | 0.00 | 73 | 1015.9 |
| 20260507071543 | 6 | 0 | 0.0 | 1.6 | 0.00 | 0.00 | 0.00 | 72 | 1016.0 |
| 20260507070043 | 6 | 0 | 0.0 | 1.6 | 0.00 | 0.00 | 0.00 | 71 | 1016.2 |
| 20260507064546 | 6 | 0 | 0.0 | 0.0 | 0.00 | 0.00 | 0.00 | 69 | 1016.3 |
| 20260507063046 | 6 | 0 | 0.0 | 1.6 | 0.00 | 0.00 | 0.00 | 67 | 1016.3 |
| 20260507061542 | 6 | 0 | 0.0 | 1.6 | 0.00 | 0.00 | 0.00 | 64 | 1016.4 |
| 20260507060046 | 6 | 248 | 0.0 | 1.6 | 0.00 | 0.00 | 0.00 | 63 | 1016.5 |
| 20260507054544 | 6 | 0 | 0.0 | 0.0 | 0.00 | 0.00 | 0.00 | 62 | 1016.7 |
| 20260507053041 | 7 | 0 | 0.0 | 0.0 | 0.00 | 0.00 | 0.00 | 59 | 1016.7 |
| 20260507051547 | 8 | 0 | 0.0 | 3.2 | 0.00 | 0.00 | 0.00 | 57 | 1016.7 |
| 20260507050053 | 8 | 0 | 0.0 | 0.0 | 0.00 | 0.00 | 0.00 | 56 | 1016.6 |
| 20260507044542 | 8 | 0 | 0.0 | 3.2 | 0.00 | 0.00 | 0.00 | 55 | 1016.6 |
| 20260507043048 | 7 | 0 | 0.0 | 0.0 | 0.00 | 0.00 | 0.00 | 57 | 1016.7 |
| 20260507041547 | 7 | 0 | 0.0 | 0.0 | 0.00 | 0.00 | 0.00 | 56 | 1016.7 |
| 20260507040042 | 7 | 0 | 0.0 | 0.0 | 0.00 | 0.00 | 0.00 | 55 | 1016.7 |
| 20260507034546 | 8 | 0 | 0.0 | 1.6 | 0.00 | 0.00 | 0.00 | 54 | 1016.9 |
| 20260507033100 | 7 | 0 | 0.0 | 0.0 | 0.00 | 0.00 | 0.00 | 55 | 1017.0 |
| 20260507031545 | 7 | 0 | 0.0 | 0.0 | 0.00 | 0.00 | 0.00 | 50 | 1017.0 |
| 20260507030041 | 8 | 0 | 0.0 | 0.0 | 0.00 | 0.00 | 0.00 | 48 | 1017.0 |